User: anonymous   Login
Location: *
(51.1248°S, 108.4023°W)
Time: 15:58:41
(UTC+00:00)
Language:

Cosmos 1975 - Orbit

View from above orbital plane
View from above orbital plane
View from above satellite
View from above satellite

Ground track
Ground track

The orbit data is extracted from the following two-line orbital elements,

1 19573U 88093A   21269.74244130  .00001072  00000-0  72875-4 0  9991
2 19573  82.5157 272.3945 0014779  20.0951 340.0855 15.05278166773601
Epoch (UTC): 26 September 2021 17:49:06
Eccentricity: 0.0014779
inclination: 82.5157°
perigee height: 540 km
apogee height: 561 km
right ascension of ascending node: 272.3945°
argument of perigee: 20.0951°
revolutions per day: 15.05278166
mean anomaly at epoch: 340.0855°
orbit number at epoch: 77360

The dashed part of the orbit path shows where the satellite is in the earth's shadow,  

DLR